Погода в Троковичах

Украина / Житомирская область     50°22′52″N   28°42′55″E
темп.,
°C
ветер,
м/с
пор.,
м/с
влажн.,
%
обл.,
%
осадки,
мм/ч
давл.,
гПа
погр.,
м
21 апреля, ср
ср2100:00+4ссз349185 0.0 101066
03:00+5зсз248888 0.1 1011128
06:00+3зсз379490 0.1 1011145
09:00+7зсз467596 0.3 1012346
12:00+9з456672 0.1 10121015
15:00+12з5660100 0.3 10121407
18:00+12зюз466195 0.2 10121301
21:00+8юз357889 0.6 101371
22 апреля, чт
чт2200:00+7юз4108326 0.0 1013175
03:00+7зюз51485100 0.0 1014388
06:00+6ююз4119197 0.1 1014249
09:00+11юз69755 0.1 1015478
12:00+15юз68575 0.2 10141509
15:00+13юз71066100 1.2 10141008
18:00+13зюз71170100 0.8 10131101
21:00+8юз3490100 1.5 101572
23 апреля, пт
пт2300:00+8зсз359269 1.3 1015307
03:00+5сз5992100 1.3 1016516
06:00+4з2587100 1.4 1016266
09:00+7зсз3473100 1.4 1017611
12:00+7з3459100 0.0 10171359
15:00+9з4549100 0.1 10161668
18:00+8зсз6859100 0.6 10161468
21:00+4з47715 0.6 1016146
24 апреля, сб
сб2400:00+2з37810 0.0 1016138
03:00+2з51181100 0.0 1016284
06:00+1з5109797 0.9 1016561
09:00+1зсз71195100 1.3 1016824
12:00+5зсз81059100 0.9 10181734
15:00+7зсз7951100 0.9 10172200
18:00+6зсз685974 0.2 10171453
21:00+2з497989 0.3 1019173
25 апреля, вс
вс2500:00+2з51081100 0.0 1018330
03:00+1з5109037 0.0 1019280
06:00−1зюз410935 0.0 1019222
09:00+3з69685 0.0 1019894
12:00+6з81045100 0.0 10192210
15:00+5зсз7105691 0.1 10191571
18:00+6зсз795780 0.1 10181539
21:00+2з49725 0.1 1019238